• Join FlightAware (Why Join?)
  • Login
  • US Flag GB Flag 
00:45 EDT


 

Airport Tracker/Info


-or-


 

Live Flight TrackerFlight Track Log ✈ EJA831 ✈ 04-May-2013 ✈ KMSN - KGCK

Flight Track Log - Related Links

Times and Time Zones

All times are in EDT time to prevent confusion due to time zone crossing. See the EJA831 flight status page for this flight to view local times or setup timezone preferences in your user account.

Time Position Orientation Groundspeed Altitude Reporting Facility
EDT Latitude Longitude Course Direction KTS MPH feet Rate Location/Type
11:07 43.1725 -89.3753 292° West 206 237 2,600  Level Chicago Center
11:08 43.1944 -89.4492 292° West 245 282 6,600 3,480 Climbing Chicago Center
11:09 43.1492 -89.5389 235° Southwest 283 326 9,800 2,580 Climbing Chicago Center
11:10 43.1139 -89.6550 247° West 331 381 11,900 1,980 Climbing Chicago Center
11:11 43.0783 -89.7831 249° West 356 410 13,900 1,980 Climbing Chicago Center
11:12 43.0261 -89.9136 241° Southwest 342 394 16,000 1,800 Climbing Chicago Center
11:13 42.9831 -90.0261 242° Southwest 347 399 17,600 1,440 Climbing Chicago Center
11:14 42.9381 -90.1442 243° Southwest 352 405 19,000 1,200 Climbing Chicago Center
11:15 42.8883 -90.2756 243° Southwest 388 447 20,100 1,260 Climbing Chicago Center
11:16 42.8350 -90.4094 242° Southwest 403 464 21,600 1,440 Climbing Chicago Center
11:17 42.7833 -90.5442 242° Southwest 404 465 23,100 1,440 Climbing Chicago Center
11:18 42.7203 -90.7078 242° Southwest 410 472 24,600 1,260 Climbing Chicago Center
11:19 42.6656 -90.8475 242° Southwest 417 480 25,700 660 Climbing Chicago Center
11:20 42.6103 -90.9886 242° Southwest 424 488 26,000 120 Climbing Chicago Center
11:21 42.5533 -91.1342 242° Southwest 435 501 26,000  Level Chicago Center
11:22 42.4964 -91.2778 242° Southwest 434 499 26,000  Level Chicago Center
11:23 42.4375 -91.4228 241° Southwest 438 504 26,000  Level Chicago Center
11:25 42.3797 -91.5658 241° Southwest 434 499 26,000  Level Chicago Center
11:26 42.3228 -91.7097 242° Southwest 434 499 26,000  Level Chicago Center
11:27 42.2650 -91.8519 241° Southwest 433 498 26,000  Level Chicago Center
11:28 42.1961 -92.0208 241° Southwest 431 496 26,000  Level Chicago Center
11:29 42.1386 -92.1631 241° Southwest 433 498 26,000  Level Chicago Center
11:30 42.0797 -92.3042 241° Southwest 433 498 26,000  Level Chicago Center
11:31 42.0217 -92.4458 241° Southwest 434 499 26,000  Level Chicago Center
11:32 41.9622 -92.5883 241° Southwest 439 505 26,000  Level Chicago Center
11:33 41.9039 -92.7294 241° Southwest 437 503 26,000  Level Chicago Center
11:34 41.8444 -92.8686 240° Southwest 435 501 26,000  Level Chicago Center
11:35 41.7731 -93.0392 241° Southwest 438 504 26,000  Level Chicago Center
11:36 41.7139 -93.1772 240° Southwest 440 506 26,000  Level Chicago Center
11:37 41.6539 -93.3186 240° Southwest 439 505 26,000  Level Minneapolis Center
11:38 41.5939 -93.4589 240° Southwest 439 505 26,000  Level Minneapolis Center
11:39 41.5211 -93.6292 240° Southwest 442 509 26,000  Level Minneapolis Center
11:40 41.4614 -93.7672 240° Southwest 440 506 26,000  Level Minneapolis Center
11:41 41.4003 -93.9086 240° Southwest 442 509 26,000  Level Minneapolis Center
11:42 41.3386 -94.0514 240° Southwest 447 514 26,000  Level Minneapolis Center
11:43 41.2767 -94.1925 240° Southwest 448 516 26,000  Level Minneapolis Center
11:44 41.2100 -94.3428 240° Southwest 448 516 26,000  Level Minneapolis Center
11:45 41.1383 -94.5044 240° Southwest 450 518 26,000  Level Minneapolis Center
11:46 41.0825 -94.6297 239° Southwest 451 519 26,000  Level Minneapolis Center
11:47 41.0181 -94.7744 239° Southwest 452 520 26,000  Level Minneapolis Center
11:48 40.9397 -94.9469 239° Southwest 454 522 26,000  Level Minneapolis Center
11:49 40.8744 -95.0911 239° Southwest 455 524 26,000  Level Minneapolis Center
11:50 40.8094 -95.2344 239° Southwest 455 524 26,000  Level Minneapolis Center
11:51 40.7442 -95.3775 239° Southwest 453 521 26,000  Level Minneapolis Center
11:52 40.6922 -95.4919 239° Southwest 452 520 26,000  Level Minneapolis Center
11:53 40.6139 -95.6619 239° Southwest 450 518 26,000  Level Minneapolis Center
11:54 40.5481 -95.8056 239° Southwest 453 521 26,000  Level Minneapolis Center
11:55 40.4822 -95.9464 238° Southwest 452 520 26,000  Level Minneapolis Center
11:57 40.4164 -96.0872 238° Southwest 451 519 26,000  Level Minneapolis Center
11:58 40.3358 -96.2572 238° Southwest 454 522 26,000  Level Minneapolis Center
11:59 40.2706 -96.3969 239° Southwest 452 520 26,000  Level Minneapolis Center
12:00 40.1911 -96.5647 238° Southwest 451 519 26,000  Level Minneapolis Center
12:01 40.1244 -96.7050 238° Southwest 452 520 26,000  Level Minneapolis Center
12:02 40.0589 -96.8431 238° Southwest 450 518 26,000  Level Minneapolis Center
12:03 39.9922 -96.9825 238° Southwest 450 518 26,000  Level Minneapolis Center
12:04 39.9264 -97.1197 238° Southwest 449 517 26,000  Level Minneapolis Center
12:05 39.8719 -97.2294 237° Southwest 449 517 26,000  Level Minneapolis Center
12:06 39.7861 -97.4075 238° Southwest 450 518 26,000  Level Minneapolis Center
12:07 39.7247 -97.5328 238° Southwest 451 519 26,000  Level Minneapolis Center
12:08 39.6514 -97.6811 237° Southwest 447 514 26,000  Level Minneapolis Center
12:09 39.5850 -97.8181 238° Southwest 449 517 26,000  Level Kansas City Center
12:10 39.5206 -97.9461 237° Southwest 453 521 26,000  Level Kansas City Center
12:11 39.4406 -98.1042 237° Southwest 447 514 26,000  Level Kansas City Center
12:12 39.3825 -98.2250 238° Southwest 443 510 26,000  Level Kansas City Center
12:13 39.3150 -98.3597 237° Southwest 445 512 26,000  Level Kansas City Center
12:14 39.2486 -98.4928 237° Southwest 441 507 26,000  Level Kansas City Center
12:15 39.1739 -98.6372 236° Southwest 441 507 26,000  Level Kansas City Center
12:16 39.1083 -98.7675 237° Southwest 435 501 26,000  Level Kansas City Center
12:17 39.0431 -98.8961 237° Southwest 431 496 26,000  Level Kansas City Center
12:18 38.9767 -99.0242 236° Southwest 431 496 26,000  Level Kansas City Center
12:19 38.9114 -99.1522 237° Southwest 430 495 26,000  Level Kansas City Center
12:20 38.8461 -99.2772 236° Southwest 426 490 26,000 -600 Level Kansas City Center
12:21 38.7583 -99.4189 232° Southwest 423 487 24,800 -1,260 Descending Kansas City Center
12:22 38.6872 -99.5300 231° Southwest 410 472 23,500 -1,740 Descending Kansas City Center
12:23 38.6119 -99.6494 231° Southwest 403 464 21,300 -2,100 Descending Kansas City Center
12:24 38.5475 -99.7536 232° Southwest 394 453 19,200 -1,860 Descending Kansas City Center
12:25 38.4825 -99.8544 231° Southwest 387 445 17,600 -1,740 Descending Kansas City Center
12:26 38.4100 -99.9672 231° Southwest 372 428 15,700 -1,920 Descending Kansas City Center
12:27 38.3481 -100.0625 230° Southwest 367 422 13,800 -1,800 Descending Kansas City Center
12:28 38.2808 -100.1703 232° Southwest 352 405 12,100 -1,560 Descending Kansas City Center
12:29 38.2217 -100.2589 230° Southwest 346 398 10,700 -1,380 Descending Kansas City Center
12:30 38.1706 -100.3397 231° Southwest 320 368 9,300 -1,560 Descending Kansas City Center
12:31 38.1108 -100.4297 230° Southwest 306 352 7,600 -1,560 Descending Kansas City Center
12:32 38.0628 -100.5042 231° Southwest 294 338 6,200 -840 Descending Kansas City Center
12:33 38.0100 -100.5858 231° Southwest 278 320 6,000 -600 Descending Kansas City Center
12:34 37.9708 -100.6439 229° Southwest 245 282 5,000 -780 Descending Kansas City Center
12:35 37.9058 -100.6567 189° South 221 254 4,500 -360 Descending Kansas City Center
12:36 37.8731 -100.6844 214° Southwest 183 211 4,300 -480 Descending Kansas City Center
12:37 37.8817 -100.7222 286° West 139 160 3,600 -720 Descending Kansas City Center